• In Russia
  • List of Countries
  • For 7 days
  • Water Temperature
  • Satellite Maps
  • Weather Map
  • Weather Widgets
  • user-avatar
    Login

    Hourly Weather Kitzbuhel

    Today, 26 September, Tuesday

    Time Temperature Precipitation Wind Pressure Humidity
    00:00 +7°C° 0 mm 1 mps 679 mmHg 91%
    01:00 +7°C° 0 mm 1 mps 679 mmHg 91%
    02:00 +6°C° 0 mm 1 mps 679 mmHg 90%
    03:00 +6°C° 0 mm 1 mps 679 mmHg 90%
    04:00 +6°C° 0 mm 1 mps 679 mmHg 89%
    05:00 +6°C° 0 mm 1 mps 679 mmHg 88%
    06:00 +7°C° 0 mm 1 mps 679 mmHg 87%
    07:00 +7°C° 0 mm 1 mps 680 mmHg 86%
    08:00 +10°C° 0 mm 1 mps 680 mmHg 78%
    09:00 +13°C° 0 mm 1 mps 681 mmHg 69%
    10:00 +15°C° 0 mm 1 mps 681 mmHg 61%
    11:00 +16°C° 0 mm 1 mps 681 mmHg 59%
    12:00 +18°C° 0 mm 1 mps 681 mmHg 57%
    13:00 +18°C° 0 mm 1 mps 681 mmHg 55%
    14:00 +17°C° 0.1 mm 2 mps 681 mmHg 60%
    15:00 +16°C° 0.1 mm 2 mps 681 mmHg 64%
    16:00 +16°C° 0.1 mm 2 mps 681 mmHg 69%
    17:00 +14°C° 0.1 mm 1 mps 680 mmHg 76%
    18:00 +12°C° 0.1 mm 1 mps 680 mmHg 84%
    19:00 +9°C° 0.1 mm 1 mps 680 mmHg 92%
    20:00 +9°C° 0 mm 1 mps 680 mmHg 91%
    21:00 +9°C° 0 mm 1 mps 680 mmHg 91%
    22:00 +9°C° 0 mm 1 mps 681 mmHg 90%
    23:00 +8°C° 0 mm 1 mps 681 mmHg 89%

    Tomorrow, 27 September, Wednesday

    Time Temperature Precipitation Wind Pressure Humidity
    00:00 +8°C° 0 mm 1 mps 681 mmHg 89%
    01:00 +8°C° 0 mm 1 mps 681 mmHg 89%
    02:00 +7°C° 0 mm 1 mps 681 mmHg 88%
    03:00 +7°C° 0 mm 1 mps 680 mmHg 87%
    04:00 +7°C° 0 mm 1 mps 680 mmHg 87%
    05:00 +7°C° 0 mm 1 mps 681 mmHg 85%
    06:00 +8°C° 0 mm 1 mps 681 mmHg 84%
    07:00 +8°C° 0 mm 1 mps 681 mmHg 83%
    08:00 +11°C° 0 mm 1 mps 682 mmHg 76%
    09:00 +13°C° 0 mm 1 mps 682 mmHg 68%
    10:00 +16°C° 0 mm 1 mps 683 mmHg 61%
    11:00 +18°C° 0 mm 1 mps 683 mmHg 58%
    12:00 +19°C° 0 mm 1 mps 683 mmHg 56%
    13:00 +20°C° 0 mm 1 mps 683 mmHg 54%
    14:00 +19°C° 0 mm 1 mps 682 mmHg 58%
    15:00 +18°C° 0 mm 2 mps 682 mmHg 62%
    16:00 +17°C° 0 mm 2 mps 682 mmHg 66%
    17:00 +15°C° 0 mm 1 mps 682 mmHg 74%
    18:00 +13°C° 0 mm 1 mps 682 mmHg 82%
    19:00 +11°C° 0 mm 1 mps 681 mmHg 90%
    20:00 +10°C° 0 mm 1 mps 682 mmHg 89%
    21:00 +10°C° 0 mm 1 mps 682 mmHg 89%
    22:00 +8°C° 0 mm 2 mps 682 mmHg 88%
    23:00 +8°C° 0 mm 2 mps 682 mmHg 88%

    Day after tomorrow, 28 September, Thursday

    Time Temperature Precipitation Wind Pressure Humidity
    00:00 +8°C° 0 mm 2 mps 682 mmHg 88%
    01:00 +9°C° 0 mm 1 mps 682 mmHg 88%
    02:00 +8°C° 0 mm 1 mps 682 mmHg 87%
    03:00 +8°C° 0 mm 1 mps 682 mmHg 87%
    04:00 +8°C° 0 mm 1 mps 682 mmHg 86%
    05:00 +8°C° 0 mm 1 mps 682 mmHg 85%
    06:00 +9°C° 0 mm 1 mps 682 mmHg 83%
    07:00 +9°C° 0 mm 1 mps 683 mmHg 82%
    08:00 +12°C° 0 mm 1 mps 683 mmHg 73%
    09:00 +14°C° 0 mm 0 mps 684 mmHg 63%
    10:00 +17°C° 0 mm 0 mps 684 mmHg 54%
    11:00 +17°C° 0 mm 0 mps 684 mmHg 53%
    12:00 +20°C° 0 mm 1 mps 684 mmHg 52%
    13:00 +20°C° 0 mm 1 mps 684 mmHg 51%
    14:00 +20°C° 0.2 mm 1 mps 684 mmHg 57%
    15:00 +19°C° 0.2 mm 1 mps 683 mmHg 63%
    16:00 +18°C° 0.2 mm 1 mps 683 mmHg 70%
    17:00 +15°C° 0.2 mm 1 mps 683 mmHg 77%
    18:00 +13°C° 0.2 mm 1 mps 683 mmHg 85%
    19:00 +11°C° 0.2 mm 1 mps 682 mmHg 92%
    20:00 +11°C° 0 mm 1 mps 682 mmHg 92%
    21:00 +11°C° 0 mm 1 mps 682 mmHg 92%
    22:00 +10°C° 0 mm 1 mps 683 mmHg 92%
    23:00 +10°C° 0 mm 1 mps 682 mmHg 91%

    29 September, Friday

    Time Temperature Precipitation Wind Pressure Humidity
    00:00 +10°C° 0 mm 1 mps 682 mmHg 91%
    01:00 +9°C° 0 mm 1 mps 682 mmHg 91%
    02:00 +9°C° 0 mm 1 mps 682 mmHg 90%
    03:00 +9°C° 0 mm 1 mps 682 mmHg 90%
    04:00 +9°C° 0 mm 1 mps 681 mmHg 90%
    05:00 +9°C° 0 mm 1 mps 682 mmHg 88%
    06:00 +9°C° 0 mm 1 mps 682 mmHg 86%
    07:00 +9°C° 0 mm 1 mps 682 mmHg 85%
    08:00 +12°C° 0 mm 1 mps 682 mmHg 76%
    09:00 +14°C° 0 mm 1 mps 682 mmHg 67%
    10:00 +16°C° 0 mm 0 mps 683 mmHg 59%
    11:00 +19°C° 0 mm 1 mps 683 mmHg 57%
    12:00 +19°C° 0 mm 1 mps 683 mmHg 55%
    13:00 +20°C° 0 mm 1 mps 682 mmHg 53%
    14:00 +19°C° 0.1 mm 1 mps 682 mmHg 57%
    15:00 +19°C° 0.1 mm 1 mps 682 mmHg 62%
    16:00 +18°C° 0.1 mm 1 mps 681 mmHg 67%
    17:00 +15°C° 0.1 mm 1 mps 681 mmHg 76%
    18:00 +13°C° 0.1 mm 1 mps 681 mmHg 84%
    19:00 +11°C° 0.1 mm 1 mps 681 mmHg 93%
    20:00 +10°C° 0 mm 1 mps 681 mmHg 93%
    21:00 +10°C° 0 mm 1 mps 681 mmHg 92%
    22:00 +9°C° 0 mm 1 mps 681 mmHg 92%
    23:00 +9°C° 0 mm 1 mps 680 mmHg 91%

    30 September, Saturday

    Time Temperature Precipitation Wind Pressure Humidity
    00:00 +9°C° 0 mm 1 mps 680 mmHg 90%
    01:00 +9°C° 0 mm 1 mps 680 mmHg 89%
    02:00 +9°C° 0 mm 1 mps 679 mmHg 88%
    03:00 +8°C° 0 mm 1 mps 679 mmHg 87%
    04:00 +8°C° 0 mm 1 mps 679 mmHg 86%
    05:00 +8°C° 0 mm 1 mps 679 mmHg 84%
    06:00 +9°C° 0 mm 1 mps 679 mmHg 82%
    07:00 +9°C° 0 mm 1 mps 679 mmHg 80%
    08:00 +12°C° 0 mm 1 mps 679 mmHg 71%
    09:00 +13°C° 0 mm 0 mps 679 mmHg 62%
    10:00 +16°C° 0 mm 0 mps 680 mmHg 54%
    11:00 +16°C° 0 mm 0 mps 679 mmHg 52%
    12:00 +19°C° 0 mm 1 mps 679 mmHg 51%
    13:00 +20°C° 0 mm 1 mps 679 mmHg 50%
    14:00 +19°C° 0.1 mm 1 mps 678 mmHg 56%
    15:00 +18°C° 0.1 mm 1 mps 678 mmHg 62%
    16:00 +16°C° 0.1 mm 1 mps 678 mmHg 68%
    17:00 +15°C° 0.3 mm 1 mps 678 mmHg 77%
    18:00 +13°C° 0.3 mm 1 mps 678 mmHg 86%
    19:00 +11°C° 0.3 mm 1 mps 677 mmHg 95%
    20:00 +11°C° 0.5 mm 1 mps 678 mmHg 96%
    21:00 +10°C° 0.5 mm 0 mps 678 mmHg 97%
    22:00 +10°C° 0.5 mm 0 mps 678 mmHg 98%
    23:00 +10°C° 0.7 mm 0 mps 678 mmHg 98%

    1 October, Sunday

    Time Temperature Precipitation Wind Pressure Humidity
    00:00 +10°C° 0.7 mm 0 mps 678 mmHg 98%
    01:00 +10°C° 0.7 mm 0 mps 678 mmHg 98%
    02:00 +10°C° 1 mm 0 mps 677 mmHg 98%
    03:00 +11°C° 1 mm 1 mps 677 mmHg 98%
    04:00 +11°C° 1 mm 1 mps 677 mmHg 98%
    05:00 +11°C° 0.8 mm 1 mps 677 mmHg 98%
    06:00 +11°C° 0.8 mm 1 mps 677 mmHg 98%
    07:00 +10°C° 0.8 mm 1 mps 677 mmHg 98%
    08:00 +11°C° 0.5 mm 1 mps 677 mmHg 96%
    09:00 +11°C° 0.5 mm 1 mps 677 mmHg 94%
    10:00 +12°C° 0.5 mm 1 mps 677 mmHg 92%
    11:00 +12°C° 0.4 mm 1 mps 677 mmHg 90%
    12:00 +12°C° 0.4 mm 1 mps 677 mmHg 87%
    13:00 +13°C° 0.4 mm 1 mps 677 mmHg 85%
    14:00 +13°C° 0.5 mm 1 mps 677 mmHg 86%
    15:00 +12°C° 0.5 mm 1 mps 677 mmHg 87%
    16:00 +12°C° 0.5 mm 1 mps 677 mmHg 88%
    17:00 +12°C° 0.4 mm 1 mps 677 mmHg 91%
    18:00 +11°C° 0.4 mm 1 mps 677 mmHg 93%
    19:00 +9°C° 0.4 mm 0 mps 677 mmHg 96%
    20:00 +9°C° 0.2 mm 0 mps 677 mmHg 97%
    21:00 +9°C° 0.2 mm 0 mps 677 mmHg 97%
    22:00 +8°C° 0.2 mm 0 mps 677 mmHg 97%
    23:00 +8°C° 0.3 mm 0 mps 677 mmHg 97%
    Show more